period_start,C,m1,H,J0,J1,J2,J3,J4,J5,JA,JB,JC,JD,JJ,JK,JN,#
2018-03-07 00:03:01,0.20,10.17,0.00,17.55,21.27,24.40,14.51,50.42,1034.20,2045.46,1209.42,1466.04,1663.83,600.07,617.76,45.08,0000 0000 0000 0000 000000
2018-03-07 00:08:02,0.13,10.18,0.00,17.56,21.26,24.42,14.46,50.35,1034.21,2045.25,1208.63,1465.23,1662.98,599.85,617.51,45.13,0000 0000 0000 0000 000000
2018-03-07 00:13:03,0.19,10.18,0.00,17.54,21.25,24.40,14.49,50.30,1034.20,2045.21,1207.62,1464.65,1662.09,600.02,617.68,45.18,0000 0000 0000 0000 000000
2018-03-07 00:18:04,0.17,10.19,0.00,17.56,21.24,24.40,14.54,50.27,1034.20,2045.34,1206.58,1464.00,1661.29,599.87,617.52,45.23,0000 0000 0000 0000 000000
2018-03-07 00:23:05,0.24,10.21,0.00,17.57,21.24,24.39,14.49,50.33,1034.20,2045.55,1205.64,1463.24,1660.47,600.03,617.74,45.28,0000 0000 0000 0000 000000
2018-03-07 00:28:07,0.21,10.22,0.00,17.57,21.24,24.38,14.44,50.70,1034.20,2045.45,1204.44,1462.35,1659.53,599.86,617.61,45.33,0000 0000 0000 0000 000000
2018-03-07 00:33:08,0.23,10.23,0.00,17.58,21.23,24.40,14.46,50.48,1034.20,2045.70,1203.24,1461.63,1658.72,599.94,617.59,45.38,0000 0000 0000 0000 000000
2018-03-07 00:38:09,0.17,10.24,0.00,17.59,21.22,24.35,14.52,50.44,1034.20,2045.92,1202.21,1460.95,1657.86,600.22,617.76,45.43,0000 0000 0000 0000 000000
2018-03-07 00:43:11,0.25,10.25,0.00,17.59,21.22,24.34,14.58,50.40,1034.20,2045.96,1200.95,1460.06,1656.80,600.15,617.70,45.48,0000 0000 0000 0000 000000
2018-03-07 00:48:12,0.17,10.26,0.00,17.61,21.22,24.35,14.50,50.45,1034.21,2045.96,1200.00,1459.20,1655.94,600.08,617.66,45.54,0000 0000 0000 0000 000000
2018-03-07 00:53:13,0.17,10.27,0.00,17.62,21.22,24.40,14.57,50.34,1034.23,2045.97,1199.09,1458.68,1655.08,599.95,617.53,45.59,0000 0000 0000 0000 000000
2018-03-07 00:58:15,0.16,10.28,0.00,17.64,21.22,24.40,14.58,50.41,1034.28,2045.96,1198.17,1458.01,1654.26,600.09,617.71,45.64,0000 0000 0000 0000 000000
2018-03-07 01:03:16,0.20,10.29,0.00,17.65,21.22,24.42,14.47,50.45,1034.33,2045.97,1197.32,1457.25,1653.52,599.77,617.28,45.69,0000 0000 0000 0000 000000
2018-03-07 01:08:18,0.17,10.29,0.00,17.67,21.22,24.43,14.56,50.41,1034.39,2045.90,1196.37,1456.67,1652.72,599.94,617.43,45.74,0000 0000 0000 0000 000000
2018-03-07 01:13:19,0.15,10.31,0.00,17.69,21.24,24.41,14.51,50.49,1034.48,2045.90,1195.31,1455.99,1651.91,599.76,617.33,45.79,0000 0000 0000 0000 000000
2018-03-07 01:18:20,0.18,10.31,0.00,17.72,21.24,24.45,14.58,50.58,1034.54,2045.83,1194.27,1455.15,1650.99,600.24,617.84,45.84,0000 0000 0000 0000 000000
2018-03-07 01:23:22,0.20,10.32,0.00,17.74,21.24,24.41,14.53,50.42,1034.47,2045.77,1193.22,1454.39,1650.08,600.28,617.75,45.89,0000 0000 0000 0000 000000
2018-03-07 01:28:23,0.18,10.33,0.00,17.78,21.25,24.41,14.57,50.42,1034.46,2045.78,1192.26,1453.74,1649.19,600.16,617.61,45.94,0000 0000 0000 0000 000000
2018-03-07 01:33:24,0.17,10.34,0.00,17.79,21.27,24.46,14.57,50.44,1034.40,2045.68,1191.11,1452.94,1648.31,600.17,617.48,45.99,0000 0000 0000 0000 000000
2018-03-07 01:38:25,0.16,10.35,0.00,17.81,21.27,24.48,14.55,50.36,1034.30,2045.32,1189.99,1452.07,1647.39,600.01,617.23,46.04,0000 0000 0000 0000 000000
2018-03-07 01:43:27,0.21,10.36,0.00,17.82,21.29,24.53,14.48,50.30,1034.28,2045.19,1188.92,1451.26,1646.37,600.09,617.26,46.09,0000 0000 0000 0000 000000
2018-03-07 01:48:28,0.19,10.37,0.00,17.84,21.30,24.54,14.48,50.38,1034.33,2045.12,1187.89,1450.43,1645.48,599.78,616.95,46.14,0000 0000 0000 0000 000000
2018-03-07 01:53:29,0.18,10.38,0.00,17.86,21.32,24.50,14.58,50.41,1034.39,2045.08,1186.85,1449.74,1644.55,600.23,617.34,46.19,0000 0000 0000 0000 000000
2018-03-07 01:58:30,0.18,10.39,0.00,17.88,21.33,24.54,14.48,50.43,1034.57,2045.03,1185.77,1448.90,1643.63,599.97,617.15,46.24,0000 0000 0000 0000 000000
2018-03-07 02:03:31,0.21,10.40,0.00,17.89,21.34,24.57,14.40,50.48,1034.66,2045.01,1184.72,1448.05,1642.66,599.70,616.94,46.29,0000 0000 0000 0000 000000
2018-03-07 02:08:32,0.23,10.41,0.00,17.92,21.37,24.59,14.46,50.49,1034.68,2045.02,1183.62,1447.23,1641.67,600.11,617.13,46.34,0000 0000 0000 0000 000000
2018-03-07 02:13:34,0.23,10.42,0.00,17.93,21.38,24.61,14.45,50.50,1034.68,2045.00,1182.46,1446.32,1640.62,600.13,617.22,46.39,0000 0000 0000 0000 000000
2018-03-07 02:18:35,0.21,10.43,0.00,17.95,21.39,24.63,14.48,50.51,1034.68,2045.00,1181.28,1445.49,1639.61,599.89,617.04,46.44,0000 0000 0000 0000 000000
2018-03-07 02:23:37,0.19,10.44,0.00,17.97,21.42,24.64,14.53,50.49,1034.68,2045.00,1180.14,1444.71,1638.65,600.37,617.58,46.50,0000 0000 0000 0000 000000
2018-03-07 02:28:38,0.19,10.45,0.00,17.99,21.43,24.59,14.42,50.52,1034.68,2045.00,1179.13,1443.87,1637.67,599.49,616.64,46.55,0000 0000 0000 0000 000000
2018-03-07 02:33:39,0.21,10.47,0.00,18.01,21.44,24.66,14.52,50.44,1034.68,2045.00,1177.96,1443.03,1636.73,600.71,617.68,46.60,0000 0000 0000 0000 000000
2018-03-07 02:38:41,0.21,10.48,0.00,18.04,21.47,24.68,14.46,50.52,1034.68,2044.98,1176.90,1442.20,1635.71,599.68,616.64,46.65,0000 0000 0000 0000 000000
2018-03-07 02:43:42,0.21,10.49,0.00,18.05,21.48,24.74,14.50,50.55,1034.70,2044.96,1175.85,1441.37,1634.79,600.03,616.94,46.70,0000 0000 0000 0000 000000
2018-03-07 02:48:43,0.17,10.50,0.00,18.08,21.50,24.69,14.48,50.57,1034.71,2044.96,1174.86,1440.69,1633.89,599.73,616.57,46.75,0000 0000 0000 0000 000000
2018-03-07 02:53:44,0.14,10.51,0.00,18.10,21.52,24.74,14.56,50.48,1034.71,2044.92,1173.96,1440.00,1633.04,600.66,617.43,46.80,0000 0000 0000 0000 000000
2018-03-07 02:58:46,0.15,10.51,0.00,18.13,21.54,24.75,14.42,50.36,1034.70,2044.60,1173.02,1439.20,1632.17,600.22,617.08,46.85,0000 0000 0000 0000 000000
2018-03-07 03:03:47,0.14,10.52,0.00,18.16,21.56,24.72,14.43,50.54,1034.70,2044.21,1172.09,1438.47,1631.35,600.09,616.74,46.90,0000 0000 0000 0000 000000
2018-03-07 03:08:49,0.15,10.53,0.00,18.19,21.58,24.77,14.51,50.42,1034.71,2044.10,1171.12,1437.84,1630.40,600.26,616.92,46.95,0000 0000 0000 0000 000000
2018-03-07 03:13:50,0.18,10.54,0.00,18.21,21.59,24.77,14.48,50.48,1034.69,2044.03,1170.14,1437.04,1629.56,600.06,616.82,47.00,0000 0000 0000 0000 000000
2018-03-07 03:18:51,0.19,10.55,0.00,18.24,21.62,24.77,14.56,50.64,1034.71,2044.01,1169.25,1436.29,1628.79,600.14,616.68,47.05,0000 0000 0000 0000 000000
2018-03-07 03:23:53,0.17,10.55,0.00,18.27,21.64,24.81,14.39,50.54,1034.71,2044.00,1168.34,1435.70,1627.93,599.70,616.11,47.10,0000 0000 0000 0000 000000
2018-03-07 03:28:54,0.18,10.56,0.00,18.31,21.66,24.85,14.40,50.61,1034.74,2044.00,1167.34,1434.92,1627.01,599.67,616.09,47.15,0000 0000 0000 0000 000000
2018-03-07 03:33:55,0.20,10.57,0.00,18.34,21.68,24.89,14.45,50.58,1034.75,2044.00,1166.33,1434.08,1626.11,600.12,616.50,47.20,0000 0000 0000 0000 000000
2018-03-07 03:38:57,0.21,10.58,0.00,18.37,21.71,24.87,14.39,50.58,1034.75,2044.00,1165.42,1433.39,1625.26,599.58,615.75,47.25,0000 0000 0000 0000 000000
2018-03-07 03:43:58,0.18,10.59,0.00,18.40,21.73,24.87,14.51,50.50,1034.72,2043.99,1164.41,1432.69,1624.35,599.66,615.91,47.30,0000 0000 0000 0000 000000
2018-03-07 03:48:59,0.17,10.60,0.00,18.43,21.76,24.88,14.48,50.52,1034.71,2043.98,1163.42,1431.97,1623.54,599.78,615.93,47.35,0000 0000 0000 0000 000000
2018-03-07 03:54:01,0.19,10.62,0.00,18.45,21.77,24.93,14.48,50.55,1034.88,2043.97,1162.50,1431.14,1622.62,600.13,616.27,47.40,0000 0000 0000 0000 000000
2018-03-07 03:59:02,0.16,10.62,0.00,18.47,21.79,24.92,14.47,50.50,1035.01,2043.82,1161.56,1430.47,1621.75,599.95,616.13,47.45,0000 0000 0000 0000 000000
2018-03-07 04:04:04,0.11,10.63,0.00,18.49,21.82,24.98,14.42,50.46,1035.03,2043.30,1160.48,1429.65,1620.83,599.65,615.81,47.51,0000 0000 0000 0000 000000
2018-03-07 04:09:05,0.14,10.64,0.00,18.51,21.84,25.02,14.44,50.48,1035.03,2043.04,1159.51,1428.93,1619.93,599.84,616.06,47.56,0000 0000 0000 0000 000000
2018-03-07 04:14:07,0.21,10.65,0.00,18.53,21.86,25.02,14.43,50.48,1035.11,2043.05,1158.49,1428.10,1619.06,599.87,616.01,47.61,0000 0000 0000 0000 000000
2018-03-07 04:19:08,0.21,10.66,0.00,18.55,21.88,25.02,14.49,50.47,1035.13,2043.01,1157.40,1427.31,1618.15,600.22,616.43,47.66,0000 0000 0000 0000 000000
2018-03-07 04:24:09,0.20,10.66,0.00,18.57,21.91,25.07,14.38,50.52,1035.16,2043.00,1156.39,1426.61,1617.23,599.91,616.03,47.71,0000 0000 0000 0000 000000
2018-03-07 04:29:11,0.19,10.68,0.00,18.59,21.93,25.09,14.41,50.44,1035.16,2043.00,1155.44,1425.83,1616.35,600.03,616.12,47.76,0000 0000 0000 0000 000000
2018-03-07 04:34:12,0.20,10.69,0.00,18.62,21.95,25.12,14.54,50.40,1035.16,2043.00,1154.41,1425.03,1615.41,600.16,616.22,47.81,0000 0000 0000 0000 000000
2018-03-07 04:39:14,0.22,10.70,0.00,18.64,21.97,25.15,14.45,50.42,1035.16,2042.99,1153.32,1424.18,1614.46,600.10,615.93,47.86,0000 0000 0000 0000 000000
2018-03-07 04:44:15,0.23,10.71,0.00,18.65,21.99,25.19,14.36,50.48,1035.13,2042.97,1152.11,1423.24,1613.28,599.82,615.67,47.91,0000 0000 0000 0000 000000
2018-03-07 04:49:17,0.21,10.72,0.00,18.68,22.02,25.22,14.49,50.56,1035.15,2042.96,1151.09,1422.44,1612.31,599.89,615.80,47.96,0000 0000 0000 0000 000000
2018-03-07 04:54:18,0.13,10.73,0.00,18.69,22.03,25.25,14.38,50.52,1035.15,2042.83,1150.38,1421.81,1611.46,599.48,615.35,48.01,0000 0000 0000 0000 000000
2018-03-07 04:59:19,0.10,10.74,0.00,18.71,22.05,25.28,14.47,50.49,1035.17,2042.21,1149.32,1421.01,1610.60,599.96,615.79,48.06,0000 0000 0000 0000 000000
2018-03-07 05:04:21,0.19,10.75,0.00,18.74,22.07,25.28,14.38,50.56,1035.17,2042.07,1148.40,1420.20,1609.79,599.40,615.12,48.11,0000 0000 0000 0000 000000
2018-03-07 05:09:22,0.18,10.75,0.00,18.77,22.09,25.29,14.41,50.48,1035.17,2042.02,1147.50,1419.60,1608.94,599.66,615.42,48.16,0000 0000 0000 0000 000000
2018-03-07 05:14:23,0.17,10.76,0.00,18.78,22.10,25.30,14.40,50.38,1035.17,2042.02,1146.47,1418.91,1608.05,599.80,615.44,48.21,0000 0000 0000 0000 000000
2018-03-07 05:19:25,0.20,10.77,0.00,18.81,22.12,25.33,14.39,50.42,1035.18,2042.00,1145.60,1418.08,1607.18,599.53,615.06,48.26,0000 0000 0000 0000 000000
2018-03-07 05:24:26,0.20,10.78,0.00,18.83,22.14,25.36,14.46,50.42,1035.19,2042.01,1144.70,1417.41,1606.39,600.35,615.86,48.31,0000 0000 0000 0000 000000
2018-03-07 05:29:28,0.14,10.79,0.00,18.85,22.16,25.38,14.45,50.38,1035.18,2042.00,1143.86,1416.78,1605.53,600.39,616.06,48.36,0000 0000 0000 0000 000000
2018-03-07 05:34:29,0.19,10.80,0.00,18.88,22.18,25.40,14.43,50.48,1035.18,2042.00,1142.88,1416.01,1604.67,599.69,615.16,48.42,0000 0000 0000 0000 000000
2018-03-07 05:39:30,0.20,10.81,0.00,18.89,22.19,25.39,14.42,50.46,1035.18,2041.98,1141.93,1415.21,1603.79,600.38,615.79,48.47,0000 0000 0000 0000 000000
2018-03-07 05:44:32,0.18,10.82,0.00,18.91,22.21,25.46,14.43,50.41,1035.18,2041.96,1140.99,1414.47,1602.95,599.95,615.35,48.52,0000 0000 0000 0000 000000
2018-03-07 05:49:33,0.18,10.83,0.00,18.92,22.22,25.46,14.47,50.50,1035.18,2041.97,1140.04,1413.83,1602.06,599.99,615.41,48.57,0000 0000 0000 0000 000000
2018-03-07 05:54:35,0.19,10.84,0.00,18.93,22.24,25.48,14.46,50.50,1035.18,2041.95,1139.10,1413.02,1601.18,600.20,615.62,48.62,0000 0000 0000 0000 000000
2018-03-07 05:59:36,0.18,10.85,0.00,18.94,22.25,25.46,14.46,50.40,1035.20,2041.72,1138.14,1412.20,1600.27,600.01,615.31,48.67,0000 0000 0000 0000 000000
2018-03-07 06:04:37,0.18,10.86,0.00,18.97,22.27,25.51,14.40,50.27,1035.19,2041.54,1137.18,1411.55,1599.40,600.10,615.34,48.72,0000 0000 0000 0000 000000
2018-03-07 06:09:38,0.11,10.86,0.00,18.97,22.28,25.56,14.46,50.42,1035.26,2041.29,1136.19,1410.85,1598.76,599.66,614.96,48.77,0000 0000 0000 0000 000000
2018-03-07 06:14:40,0.17,10.87,0.00,18.99,22.30,25.55,14.43,50.48,1035.22,2041.05,1135.20,1410.03,1597.85,599.88,615.15,48.82,0000 0000 0000 0000 000000
2018-03-07 06:19:41,0.20,10.88,0.00,19.00,22.32,25.55,14.42,50.53,1035.37,2041.05,1134.17,1409.21,1596.95,599.78,615.25,48.87,0000 0000 0000 0000 000000
2018-03-07 06:24:43,0.21,10.89,0.00,19.01,22.33,25.60,14.40,50.44,1035.57,2041.02,1133.15,1408.45,1596.04,599.65,615.03,48.92,0000 0000 0000 0000 000000
2018-03-07 06:29:44,0.17,10.90,0.00,19.02,22.34,25.59,14.48,50.48,1035.65,2041.01,1132.19,1407.80,1595.11,599.87,615.39,48.97,0000 0000 0000 0000 000000
2018-03-07 06:34:45,0.20,10.91,0.00,19.03,22.36,25.63,14.45,50.47,1035.66,2041.00,1131.25,1407.02,1594.18,599.75,615.13,49.02,0000 0000 0000 0000 000000
2018-03-07 06:39:46,0.22,10.92,0.00,19.04,22.38,25.62,14.49,50.33,1035.66,2041.00,1130.26,1406.23,1593.28,600.24,615.78,49.07,0000 0000 0000 0000 000000
2018-03-07 06:44:47,0.21,10.93,0.00,19.04,22.39,25.64,14.36,50.31,1035.66,2041.00,1129.28,1405.52,1592.41,599.93,615.35,49.12,0000 0000 0000 0000 000000
2018-03-07 06:49:49,0.19,10.94,0.00,19.03,22.39,25.70,14.45,50.44,1035.66,2041.00,1128.21,1404.78,1591.54,600.20,615.61,49.17,0000 0000 0000 0000 000000
2018-03-07 06:54:50,0.20,10.96,0.00,19.04,22.42,25.73,14.49,50.33,1035.66,2041.00,1127.12,1404.01,1590.63,600.39,615.83,49.22,0000 0000 0000 0000 000000
2018-03-07 06:59:51,0.22,10.97,0.00,19.04,22.42,25.66,14.50,50.36,1035.66,2041.00,1126.12,1403.18,1589.70,600.02,615.46,49.27,0000 0000 0000 0000 000000
2018-03-07 07:04:53,0.20,10.98,0.00,19.04,22.44,25.74,14.40,50.41,1035.67,2040.97,1125.09,1402.46,1588.91,599.89,615.31,49.32,0000 0000 0000 0000 000000
2018-03-07 07:09:54,0.16,10.99,0.00,19.05,22.44,25.69,14.47,50.40,1035.68,2040.98,1124.11,1401.85,1588.07,600.13,615.62,49.37,0000 0000 0000 0000 000000
2018-03-07 07:14:55,0.21,11.00,0.00,19.06,22.44,25.71,14.46,50.38,1035.70,2040.98,1123.26,1401.05,1587.24,600.39,615.71,49.42,0000 0000 0000 0000 000000
2018-03-07 07:19:57,0.22,11.01,0.00,19.07,22.45,25.77,14.42,50.30,1035.82,2040.98,1122.30,1400.32,1586.32,600.07,615.46,49.48,0000 0000 0000 0000 000000
2018-03-07 07:24:58,0.20,11.01,0.00,19.07,22.47,25.74,14.46,50.35,1036.01,2040.95,1121.32,1399.63,1585.44,599.71,615.43,49.53,0000 0000 0000 0000 000000
2018-03-07 07:29:59,0.17,11.03,0.00,19.07,22.47,25.74,14.37,50.32,1035.99,2040.89,1120.28,1398.90,1584.57,599.84,615.41,49.58,0000 0000 0000 0000 000000
2018-03-07 07:35:00,0.18,11.03,0.00,19.07,22.48,25.74,14.42,50.26,1036.13,2040.76,1119.36,1398.06,1583.68,599.88,615.52,49.63,0000 0000 0000 0000 000000
2018-03-07 07:40:01,0.19,11.05,0.00,19.07,22.49,25.79,14.42,50.38,1036.11,2040.57,1118.22,1397.25,1582.82,600.13,615.87,49.68,0000 0000 0000 0000 000000
2018-03-07 07:45:03,0.20,11.06,0.00,19.07,22.49,25.79,14.34,50.45,1036.14,2040.53,1117.21,1396.63,1581.98,599.71,615.50,49.73,0000 0000 0000 0000 000000
2018-03-07 07:50:04,0.15,11.06,0.00,19.07,22.50,25.84,14.38,50.49,1036.15,2040.41,1116.28,1395.94,1581.08,599.90,615.46,49.78,0000 0000 0000 0000 000000
2018-03-07 07:55:06,0.19,11.07,0.00,19.07,22.52,25.81,14.38,50.42,1036.15,2040.24,1115.27,1395.11,1580.25,599.59,615.27,49.83,0000 0000 0000 0000 000000
2018-03-07 08:00:07,0.20,11.08,0.00,19.07,22.52,25.81,14.44,50.64,1036.15,2040.21,1114.41,1394.50,1579.51,600.35,615.88,49.88,0000 0000 0000 0000 000000
2018-03-07 08:05:08,0.10,11.09,0.00,19.07,22.52,25.85,14.46,50.56,1036.15,2040.16,1113.60,1393.99,1578.89,600.37,616.14,49.93,0000 0000 0000 0000 000000
2018-03-07 08:10:10,0.19,11.10,0.00,19.07,22.53,25.87,14.42,50.47,1036.16,2040.28,1112.84,1393.26,1578.08,599.84,615.46,49.98,0000 0000 0000 0000 000000
2018-03-07 08:15:11,0.14,11.11,0.00,19.05,22.54,25.80,14.47,50.49,1036.15,2040.23,1112.01,1392.87,1577.38,599.88,615.58,50.03,0000 0000 0000 0000 000000
2018-03-07 08:20:12,0.17,11.12,0.00,19.04,22.54,25.83,14.41,50.31,1036.15,2040.23,1111.17,1392.07,1576.79,599.85,615.62,50.08,0000 0000 0000 0000 000000
2018-03-07 08:25:13,0.17,11.12,0.00,19.04,22.54,25.82,14.50,50.45,1036.15,2040.06,1110.26,1391.59,1576.02,600.49,616.37,50.13,0000 0000 0000 0000 000000
2018-03-07 08:30:15,0.15,11.13,0.00,19.04,22.54,25.90,14.44,50.42,1036.16,2040.06,1109.51,1390.99,1575.20,599.69,615.31,50.18,0000 0000 0000 0000 000000
2018-03-07 08:35:16,0.15,11.14,0.00,19.04,22.54,25.81,14.46,50.40,1036.17,2040.09,1108.88,1390.24,1574.61,600.04,615.73,50.23,0000 0000 0000 0000 000000
2018-03-07 08:40:17,0.12,11.15,0.00,19.04,22.54,25.87,14.50,50.40,1036.17,2040.07,1108.05,1389.86,1573.88,599.91,615.56,50.28,0000 0000 0000 0000 000000
2018-03-07 08:45:18,0.20,11.16,0.00,19.03,22.54,25.83,14.47,50.43,1036.19,2040.03,1107.18,1389.07,1573.06,599.90,615.76,50.33,0000 0000 0000 0000 000000
2018-03-07 08:50:20,0.20,11.17,0.00,19.03,22.54,25.82,14.38,50.45,1036.28,2040.07,1106.25,1388.62,1572.42,599.94,615.66,50.39,0000 0000 0000 0000 000000
2018-03-07 08:55:21,0.15,11.18,0.00,19.01,22.54,25.88,14.45,50.43,1036.48,2040.08,1105.42,1387.99,1571.68,600.02,616.03,50.44,0000 0000 0000 0000 000000
2018-03-07 09:00:23,0.24,11.19,0.00,19.01,22.54,25.82,14.51,50.33,1036.57,2040.15,1104.37,1387.12,1570.76,600.50,616.51,50.49,0000 0000 0000 0000 000000
2018-03-07 09:05:24,0.24,11.20,0.00,19.00,22.54,25.76,14.40,50.41,1036.60,2040.11,1103.17,1386.14,1569.66,599.91,615.88,50.54,0000 0000 0000 0000 000000
2018-03-07 09:10:25,0.22,11.21,0.00,18.99,22.54,25.85,14.47,50.50,1036.64,2040.10,1102.03,1385.34,1568.82,599.85,616.02,50.59,0000 0000 0000 0000 000000
2018-03-07 09:15:27,0.23,11.22,0.00,18.99,22.52,25.81,14.45,50.45,1036.64,2040.18,1100.98,1384.59,1567.86,600.40,616.53,50.64,0000 0000 0000 0000 000000
2018-03-07 09:20:28,0.18,11.23,0.00,18.98,22.52,25.78,14.45,50.50,1036.64,2040.18,1099.93,1383.91,1566.98,600.02,616.17,50.69,0000 0000 0000 0000 000000
2018-03-07 09:25:29,0.24,11.25,0.00,18.98,22.52,25.78,14.41,50.49,1036.64,2040.32,1099.06,1383.11,1566.12,599.37,615.54,50.74,0000 0000 0000 0000 000000
2018-03-07 09:30:31,0.20,11.25,0.00,18.97,22.52,25.72,14.51,50.54,1036.64,2040.57,1098.24,1382.74,1565.60,600.07,616.24,50.79,0000 0000 0000 0000 000000
2018-03-07 09:35:32,0.13,11.26,0.00,18.97,22.52,25.74,14.45,50.58,1036.64,2040.51,1097.48,1382.04,1564.94,599.98,616.12,50.84,0000 0000 0000 0000 000000
2018-03-07 09:40:34,0.19,11.27,0.00,18.95,22.50,25.75,14.44,50.52,1036.65,2040.54,1096.78,1381.51,1564.13,599.71,616.00,50.89,0000 0000 0000 0000 000000
2018-03-07 09:45:35,0.14,11.28,0.00,18.94,22.50,25.75,14.40,50.48,1036.64,2040.78,1095.97,1381.00,1563.61,599.68,615.88,50.94,0000 0000 0000 0000 000000
2018-03-07 09:50:36,0.20,11.29,0.00,18.94,22.49,25.73,14.43,50.47,1036.65,2040.81,1095.13,1380.32,1562.95,599.70,615.92,50.99,0000 0000 0000 0000 000000
2018-03-07 09:55:37,0.15,11.30,0.00,18.93,22.49,25.74,14.52,50.48,1036.68,2040.91,1094.47,1379.96,1562.16,599.75,615.99,51.04,0000 0000 0000 0000 000000
2018-03-07 10:00:39,0.15,11.31,0.00,18.92,22.49,25.70,14.51,50.38,1036.66,2040.88,1093.82,1379.17,1561.47,600.48,616.71,51.09,0000 0000 0000 0000 000000
2018-03-07 10:05:40,0.19,11.31,0.00,18.90,22.49,25.72,14.49,50.49,1036.72,2040.91,1092.90,1378.60,1560.73,600.22,616.51,51.14,0000 0000 0000 0000 000000
2018-03-07 10:10:41,0.12,11.32,0.00,18.89,22.48,25.72,14.45,50.52,1036.68,2040.80,1091.98,1377.99,1559.99,600.07,616.41,51.19,0000 0000 0000 0000 000000
2018-03-07 10:15:43,0.23,11.34,0.00,18.87,22.47,25.69,14.42,50.52,1036.66,2040.89,1091.09,1377.19,1559.14,599.67,616.15,51.24,0000 0000 0000 0000 000000
2018-03-07 10:20:44,0.14,11.34,0.00,18.85,22.47,25.73,14.50,50.45,1036.66,2040.97,1090.36,1376.94,1558.69,600.31,616.83,51.29,0000 0000 0000 0000 000000
2018-03-07 10:25:46,0.18,11.35,0.00,18.84,22.47,25.69,14.46,50.56,1036.67,2040.97,1089.66,1376.14,1558.00,599.63,616.14,51.34,0000 0000 0000 0000 000000
2018-03-07 10:30:47,0.12,11.36,0.00,18.83,22.47,25.69,14.54,50.59,1036.65,2040.97,1088.87,1375.81,1557.20,600.59,617.09,51.40,0000 0000 0000 0000 000000
2018-03-07 10:35:48,0.18,11.37,0.00,18.82,22.46,25.62,14.56,50.54,1036.65,2040.96,1088.02,1375.08,1556.65,600.30,616.86,51.45,0000 0000 0000 0000 000000
2018-03-07 10:40:50,0.19,11.38,0.00,18.81,22.45,25.67,14.52,50.48,1036.66,2040.97,1087.19,1374.49,1555.98,600.08,616.55,51.50,0000 0000 0000 0000 000000
2018-03-07 10:45:51,0.14,11.38,0.00,18.79,22.44,25.63,14.48,50.60,1036.66,2040.97,1086.60,1373.96,1555.16,599.94,616.47,51.55,0000 0000 0000 0000 000000
2018-03-07 10:50:53,0.21,11.39,0.00,18.78,22.44,25.67,14.45,50.63,1036.65,2040.97,1085.62,1373.15,1554.46,599.63,616.15,51.60,0000 0000 0000 0000 000000
2018-03-07 10:55:54,0.25,11.40,0.00,18.77,22.42,25.63,14.50,50.52,1036.65,2040.96,1084.43,1372.38,1553.49,600.00,616.76,51.65,0000 0000 0000 0000 000000
2018-03-07 11:00:55,0.21,11.42,0.00,18.77,22.42,25.58,14.50,50.47,1036.66,2040.99,1083.27,1371.67,1552.60,600.17,616.83,51.70,0000 0000 0000 0000 000000
2018-03-07 11:05:57,0.16,11.43,0.00,18.75,22.41,25.64,14.45,50.36,1036.66,2040.99,1082.29,1371.02,1551.93,600.09,616.67,51.75,0000 0000 0000 0000 000000
2018-03-07 11:10:58,0.21,11.44,0.00,18.74,22.39,25.62,14.42,50.45,1036.65,2040.99,1081.51,1370.35,1551.09,599.79,616.41,51.80,0000 0000 0000 0000 000000
2018-03-07 11:15:59,0.12,11.44,0.00,18.72,22.39,25.63,14.50,50.52,1036.65,2040.99,1080.79,1369.87,1550.41,600.16,616.85,51.85,0000 0000 0000 0000 000000
2018-03-07 11:21:01,0.19,11.46,0.00,18.72,22.39,25.56,14.40,50.52,1036.65,2040.99,1079.87,1369.07,1549.72,599.72,616.44,51.90,0000 0000 0000 0000 000000
2018-03-07 11:26:02,0.18,11.46,0.00,18.70,22.37,25.60,14.45,50.54,1036.65,2040.99,1079.01,1368.60,1548.99,600.12,616.86,51.95,0000 0000 0000 0000 000000
2018-03-07 11:31:03,0.16,11.48,0.00,18.69,22.37,25.54,14.49,50.60,1036.64,2040.99,1078.13,1368.00,1548.16,599.77,616.46,52.00,0000 0000 0000 0000 000000
2018-03-07 11:36:05,0.23,11.49,0.00,18.68,22.37,25.55,14.53,50.63,1036.64,2040.99,1077.29,1367.26,1547.42,599.93,616.88,52.05,0000 0000 0000 0000 000000
2018-03-07 11:41:06,0.18,11.49,0.00,18.67,22.35,25.55,14.46,50.56,1036.64,2040.99,1076.40,1366.69,1546.76,599.94,616.66,52.10,0000 0000 0000 0000 000000
2018-03-07 11:46:07,0.15,11.50,0.00,18.66,22.34,25.56,14.46,50.49,1036.64,2040.99,1075.62,1366.02,1546.01,600.16,617.03,52.15,0000 0000 0000 0000 000000
2018-03-07 11:51:09,0.21,11.51,0.00,18.65,22.34,25.53,14.47,50.56,1036.64,2040.99,1074.74,1365.47,1545.20,599.87,616.66,52.20,0000 0000 0000 0000 000000
2018-03-07 11:56:10,0.15,11.52,0.00,18.64,22.33,25.48,14.49,50.50,1036.64,2041.00,1073.80,1364.91,1544.56,600.24,617.06,52.25,0000 0000 0000 0000 000000
2018-03-07 12:01:11,0.18,11.53,0.00,18.62,22.32,25.48,14.42,50.65,1036.64,2041.00,1072.88,1364.09,1543.89,599.79,616.68,52.30,0000 0000 0000 0000 000000
2018-03-07 12:06:13,0.19,11.54,0.00,18.60,22.31,25.47,14.47,50.70,1036.64,2041.02,1072.01,1363.59,1543.08,599.93,616.83,52.35,0000 0000 0000 0000 000000
2018-03-07 12:11:14,0.17,11.55,0.00,18.58,22.29,25.46,14.48,50.67,1036.64,2041.03,1071.12,1363.01,1542.37,600.18,617.21,52.41,0000 0000 0000 0000 000000
2018-03-07 12:16:15,0.22,11.56,0.00,18.58,22.29,25.43,14.51,50.61,1036.63,2041.13,1070.22,1362.32,1541.80,600.35,617.16,52.46,0000 0000 0000 0000 000000
2018-03-07 12:21:16,0.14,11.57,0.00,18.57,22.27,25.46,14.51,50.67,1036.62,2041.17,1069.47,1361.92,1541.02,600.15,617.10,52.51,0000 0000 0000 0000 000000
2018-03-07 12:26:17,0.26,11.58,0.00,18.55,22.27,25.44,14.54,50.66,1036.63,2041.36,1068.66,1361.11,1540.26,600.22,617.36,52.56,0000 0000 0000 0000 000000
2018-03-07 12:31:19,0.17,11.59,0.00,18.53,22.25,25.41,14.43,50.70,1036.59,2041.43,1067.79,1360.61,1539.60,599.73,616.83,52.61,0000 0000 0000 0000 000000
2018-03-07 12:36:20,0.17,11.60,0.00,18.51,22.24,25.44,14.47,50.76,1036.56,2041.66,1066.89,1360.00,1538.90,599.73,616.87,52.66,0000 0000 0000 0000 000000
2018-03-07 12:41:21,0.24,11.61,0.00,18.49,22.24,25.39,14.45,50.66,1036.42,2041.86,1065.99,1359.29,1538.06,599.58,616.65,52.71,0000 0000 0000 0000 000000
2018-03-07 12:46:23,0.28,11.62,0.00,18.49,22.22,25.41,14.51,50.71,1036.38,2041.94,1064.81,1358.56,1537.23,600.19,617.06,52.76,0000 0000 0000 0000 000000
2018-03-07 12:51:24,0.28,11.64,0.00,18.49,22.22,25.38,14.54,50.77,1036.25,2041.95,1063.49,1357.62,1536.12,599.32,616.40,52.81,0000 0000 0000 0000 000000